Location: Bakhuizen
(52.8696°N, 5.4575°E)
Time: 04:43:58
(UTC+00:00)

Cosmos 2218 Rocket - Pass Details

Date: 11 May 2021
Orbit: 957 x 1005 km, 82.9° (Epoch: 14 June)

Event Time Altitude Azimuth Distance (km) Brightness Sun altitude
Rises 22:05:48 0° 350° (N) 3,684 8.7 -16.5°
Reaches altitude 10° 22:08:20 10° 353° (N) 2,739 7.6 -16.6°
Maximum altitude 22:14:37 69° 77° (ENE) 1,057 4.1 -16.9°
Enters shadow 22:18:17 26° 154° (SSE) 1,828 4.8 -17.1°
